Location: Nitra
(0.0000°N, 18.0833°E)
Time: 09:25:35
(UTC+01:00)

Meteor 2-15 Rocket - Pass Details

Date: 25 September 2022
Orbit: 940 x 955 km, 82.5° (Epoch: 28 November)

Event Time Altitude Azimuth Distance (km) Brightness Sun altitude
Rises 19:38:44 0° 4° (N) 3,606 7.4 -14.9°
Reaches altitude 10° 19:41:15 10° 7° (N) 2,666 6.7 -15.5°
Maximum altitude 19:47:15 61° 87° (E) 1,075 4.4 -17.0°
Drops below altitude 10° 19:53:17 10° 166° (SSE) 2,682 6.7 -18.5°
Sets 19:55:49 0° 169° (S) 3,631 7.4 -19.1°
